Weather History for Maun, Botswana

Change the Weather History Date:

Wednesday, September 25, 2013

  Actual Average Record
Temperature  
Mean Temperature 82 °F -  
Max Temperature 98 °F 92 °F 102 °F (1997)
Min Temperature 67 °F 66 °F 57 °F (2012)
Cooling Degree Days 18    
Growing Degree Days 32 (Base 50)    
Moisture  
Dew Point 43 °F    
Average Humidity 27    
Maximum Humidity 46    
Minimum Humidity 7    
Precipitation  
Precipitation 0.00 in - - ()
Sea Level Pressure  
Sea Level Pressure 30.03 in    
Wind  
Wind Speed 5 mph ()    
Max Wind Speed 9 mph    
Max Gust Speed -    
Visibility 6.0 miles    
Events      
Averages and records for this station are not official NWS values.
T = Trace of Precipitation, MM = Missing Value Source: Averaged Metar Reports

Daily Weather History Graph

Daily Weather History Graph

Search for Another Location

Airport:

Trip Planner

Search our weather history database for the weather conditions in past years. The results will help you decide how hot, cold, wet, or windy it might be!

Date:

Astronomy

Sep. 25, 2013 Rise Set
Actual Time 6:13 AM CAT 6:23 PM CAT
Civil Twilight 5:51 AM CAT 6:45 PM CAT
Nautical Twilight 5:25 AM CAT 7:10 PM CAT
Astronomical Twilight 4:59 AM CAT 7:36 PM CAT
Moon 11:51 PM CAT (9/25) 10:25 AM CAT (9/25)
Length of Visible Light 12h 53m
Length of Day
12h 09m
Waning Gibbous, 66% of the Moon is Illuminated
Sep 25
Waning Gibbous
Sep 27
Last Quarter
Oct 5
New
Oct 12
First Quarter
Oct 19
Full

Hourly Weather History & Observations

Time (CAT) Temp. Dew Point Humidity Pressure Visibility Wind Dir Wind Speed Gust Speed Precip Events Conditions
12:00 AM 77.0 °F 46.4 °F 34% 30.04 in - East 6.9 mph - N/A   Clear
1:00 AM 75.2 °F 46.4 °F 36% 30.04 in - East 5.8 mph - N/A   Clear
2:00 AM 73 °F 46 °F 27%  in 6 mi East 6.9 mph - -   Partly Cloudy
2:00 AM 73.4 °F 46.4 °F 38% 30.01 in - East 6.9 mph - N/A   Clear
3:00 AM 71.6 °F 46.4 °F 41% 30.01 in - East 5.8 mph - N/A   Clear
4:00 AM 68.0 °F 46.4 °F 46% 30.01 in - ESE 4.6 mph - N/A   Clear
5:00 AM 69.8 °F 44.6 °F 40% 30.04 in - East 9.2 mph - N/A   Clear
6:00 AM 68.0 °F 44.6 °F 43% 30.04 in - ENE 3.5 mph - N/A   Clear
7:00 AM 68.0 °F 46.4 °F 46% 30.06 in - SSE 3.5 mph - N/A   Clear
8:00 AM 74 °F 44 °F 23%  in 6 mi NE 1.2 mph - -   Partly Cloudy
8:00 AM 75.2 °F 44.6 °F 34% 30.06 in - Variable 1.2 mph - N/A   Clear
9:00 AM 80.6 °F 44.6 °F 28% 30.09 in - Variable 2.3 mph - N/A   Clear
10:00 AM 86.0 °F 50.0 °F 29% 30.09 in - South 1.2 mph - N/A   Clear
11:00 AM 91.4 °F 46.4 °F 21% 30.09 in - NE 5.8 mph - N/A   Clear
12:00 PM 95.0 °F 42.8 °F 16% 30.04 in - NNE 8.1 mph - N/A   Clear
1:00 PM 95.0 °F 41.0 °F 15% 30.04 in - NE 5.8 mph - N/A   Clear
2:00 PM 96 °F 39 °F 7%  in 6 mi NE 4.6 mph - -   Partly Cloudy
2:00 PM 95.0 °F 39.2 °F 14% 29.98 in - NE 4.6 mph - N/A   Clear
4:00 PM 98.6 °F 37.4 °F 12% 29.95 in - NNE 4.6 mph - N/A   Clear
6:00 PM 95.0 °F 37.4 °F 13% 29.95 in - NNE 3.5 mph - N/A   Clear
7:00 PM 91.4 °F 37.4 °F 15% 29.98 in - Variable 2.3 mph - N/A   Clear
8:00 PM 86.0 °F 37.4 °F 18% 29.98 in - WSW 3.5 mph - N/A   Clear
9:00 PM 80.6 °F 39.2 °F 23% 30.01 in - Variable 1.2 mph - N/A   Clear
10:00 PM 78.8 °F 37.4 °F 23% 30.04 in - SSE 4.6 mph - N/A   Clear
11:00 PM 78.8 °F 37.4 °F 23% 30.04 in - SE 9.2 mph - N/A   Clear